GFSSW_500_rhum_186.txt.gz
RH
17 16 15 12 12 12 11 10 9 8 7 7 8 8 8 8 7 7 7 8 8 9 8 7 6 6 7 7 7 7 6 9 15 15 18 13 23 30 30 27 26 22 18 21 24
16 16 14 16 15 14 12 10 9 9 8 9 10 10 10 10 8 9 10 10 10 10 9 8 8 8 8 8 10 10 10 9 8 10 14 17 20 20 22 24 27 25 24 22 24
16 15 15 14 16 16 15 12 11 10 9 11 11 12 12 11 10 18 13 13 11 9 9 9 8 8 9 11 16 19 18 14 14 13 11 13 16 15 18 18 17 21 26 27 24
17 16 17 16 15 16 17 17 14 11 10 10 12 13 13 13 13 17 17 13 11 10 10 11 11 14 17 19 22 23 32 34 32 27 17 14 17 17 16 14 15 14 22 28 29
27 22 18 19 17 17 17 18 19 14 13 12 11 13 14 15 16 18 17 14 13 16 17 17 15 20 26 27 31 34 34 42 43 46 43 27 26 23 24 19 20 22 26 29 30
27 34 26 21 21 19 19 18 20 19 17 15 13 13 15 16 20 19 19 18 18 21 24 24 25 24 26 30 33 42 41 42 37 39 47 46 44 38 38 29 28 36 38 38 37
12 19 41 29 25 24 24 21 22 26 21 20 18 15 15 19 22 24 21 21 22 22 24 26 26 25 24 29 34 44 40 34 34 42 39 42 43 44 45 44 40 39 39 40 40
4 10 44 50 34 29 31 30 24 28 30 29 23 18 17 22 21 26 26 23 25 26 26 26 29 30 29 33 37 36 36 35 34 37 41 43 41 41 41 42 43 44 44 42 41
4 4 12 64 55 42 37 39 36 30 37 35 33 28 22 26 25 26 27 28 27 26 27 25 26 26 28 28 31 34 36 36 32 39 42 43 48 44 47 42 40 40 41 41 40
6 4 4 24 85 59 50 43 42 42 37 40 35 34 29 32 30 26 28 32 31 26 25 26 27 28 30 30 28 29 28 30 30 47 38 45 55 49 56 48 43 38 37 36 35
24 14 4 5 100 82 65 46 45 46 44 43 39 37 32 29 30 30 28 34 34 32 28 26 28 29 30 32 29 28 27 25 27 34 41 46 57 57 56 57 54 48 43 40 31
15 34 31 9 65 100 75 62 48 48 48 48 48 44 36 31 23 26 30 31 32 33 33 28 26 27 29 30 27 26 26 27 27 31 35 40 49 53 58 57 61 58 54 49 46
14 18 23 38 21 91 99 74 55 54 50 52 52 47 42 33 24 20 24 29 29 29 32 32 27 31 29 29 26 24 25 29 34 37 35 36 40 45 48 54 57 56 52 48 45
14 20 19 23 36 71 100 96 69 55 56 48 55 51 40 40 25 21 23 23 24 25 27 32 32 32 29 30 24 22 34 36 34 30 29 31 31 40 48 43 48 48 46 44 42
15 14 24 20 19 67 100 100 97 61 58 52 49 47 43 39 28 25 25 23 19 18 20 24 30 32 30 29 25 28 36 32 30 29 31 34 32 29 41 47 43 44 47 46 45
16 14 23 31 46 46 100 100 100 89 56 51 49 49 47 39 36 30 26 22 16 19 21 22 29 31 31 28 25 36 32 32 24 29 37 38 36 30 35 41 47 47 44 44 44
17 14 21 37 41 59 100 100 100 94 60 51 51 53 51 42 40 36 26 19 17 21 24 25 27 31 30 25 31 34 32 26 24 36 44 48 41 33 42 43 47 47 47 47 48
15 13 16 37 44 69 100 100 100 76 77 58 56 60 54 48 42 31 23 18 20 26 28 27 31 32 28 26 39 34 31 28 26 33 38 53 48 43 45 42 46 48 48 47 45
23 16 14 31 28 52 100 100 90 90 93 65 66 56 56 49 37 26 24 26 29 34 32 36 30 30 27 32 38 35 30 28 24 25 33 43 47 49 47 47 50 51 51 49 46
13 20 17 13 24 43 99 96 72 98 100 97 62 67 59 55 55 52 40 26 22 31 29 29 27 27 30 36 40 36 29 26 23 20 26 35 40 42 52 54 53 53 52 51 51
9 12 17 19 40 56 86 87 100 100 100 100 95 62 58 58 48 43 33 29 24 26 25 25 27 32 33 41 42 36 28 25 22 19 24 30 39 44 57 55 53 52 50 53 54
24 12 10 20 33 89 52 94 100 100 100 100 100 99 58 61 64 51 55 52 37 30 24 18 18 21 32 44 39 34 28 24 20 18 21 28 37 48 45 45 44 43 48 56 54
74 62 31 34 21 54 70 88 100 100 100 100 100 100 94 62 80 86 77 63 57 53 41 31 21 20 26 35 39 36 30 22 17 16 20 33 40 42 40 39 40 45 46 45 48
92 87 62 73 77 33 26 37 97 100 100 100 100 100 100 81 95 90 80 74 69 62 58 48 36 27 23 26 32 29 22 17 14 13 23 33 44 46 38 35 48 55 51 54 56
86 98 96 62 85 87 43 42 93 100 100 100 100 96 100 99 84 94 90 95 87 75 69 59 51 42 32 24 19 16 15 14 14 18 18 44 33 51 39 40 52 50 51 56 60
86 91 100 100 100 92 73 58 100 100 100 100 100 100 100 100 96 100 100 100 98 94 76 72 59 56 50 42 36 31 29 28 23 27 27 36 50 43 50 48 51 50 54 64 64
91 74 100 100 100 100 84 87 71 99 100 100 100 100 100 100 100 96 100 100 89 93 85 78 73 69 60 54 48 39 41 35 30 35 36 42 46 51 55 55 56 52 58 63 60

GFSSW_500_rhum_189.txt.gz
RH
13 11 16 18 16 15 14 14 13 15 13 11 10 8 7 7 7 7 7 7 7 6 6 6 6 6 6 5 5 5 5 5 6 12 14 14 18 26 31 27 24 21 28 31 25
23 20 15 12 16 15 15 14 14 14 14 11 10 9 9 8 8 8 8 7 8 8 8 7 7 6 6 6 6 6 6 6 7 7 8 13 14 19 26 26 27 26 28 30 28
20 26 25 19 14 14 14 16 13 14 13 14 11 11 10 10 11 10 8 10 10 10 8 8 7 7 6 7 8 9 9 8 12 11 10 11 8 13 18 19 19 21 24 30 29
5 10 23 29 23 18 16 15 16 14 14 13 14 12 12 12 13 15 12 13 13 10 9 9 9 9 9 10 10 9 11 11 22 25 17 22 15 13 11 14 15 19 20 20 21
10 7 7 12 25 25 22 18 17 16 14 14 13 12 13 13 14 15 17 17 16 11 11 13 13 14 14 18 17 19 23 23 24 32 32 34 33 31 18 11 15 18 20 20 14
19 11 5 7 12 24 30 24 20 19 17 15 15 14 13 14 17 16 17 20 18 16 16 18 19 21 20 21 24 27 25 38 34 38 36 33 41 47 46 30 24 23 25 23 23
9 7 5 5 5 17 28 35 25 20 22 17 16 15 14 14 17 20 19 23 21 20 20 22 22 24 25 24 25 28 32 33 35 32 32 38 36 35 42 45 46 43 35 28 30
13 10 6 6 5 5 5 18 43 27 25 23 16 18 16 17 14 20 24 28 26 25 23 23 23 26 27 27 29 30 32 30 32 31 31 34 39 39 40 39 44 46 49 47 44
13 9 7 6 5 5 4 6 30 47 32 28 23 20 23 18 20 18 23 30 30 27 24 26 25 26 28 28 27 26 28 29 31 32 34 32 34 37 42 43 42 44 44 45 46
11 7 5 5 4 5 4 4 8 50 49 38 32 30 28 28 26 22 24 28 32 32 27 27 26 25 26 27 26 27 27 28 25 30 29 30 33 36 40 50 47 47 48 45 43
7 6 5 5 5 5 7 5 5 53 59 50 36 39 39 34 30 32 27 29 31 36 32 28 26 27 26 30 29 29 29 27 26 26 25 24 33 31 40 44 58 59 55 54 49
7 6 6 6 6 7 12 26 12 39 89 64 46 45 44 44 34 35 31 30 31 34 33 32 34 26 28 30 29 29 27 26 25 25 26 27 36 36 35 46 60 64 66 62 52
9 9 8 10 11 13 15 28 31 14 84 80 59 46 49 57 40 34 34 28 31 31 32 35 35 34 28 28 30 30 28 26 23 24 30 32 31 31 36 42 50 56 64 60 59
11 11 13 15 15 14 15 22 37 16 52 74 74 55 48 58 52 42 37 28 24 27 32 31 33 34 35 31 30 28 29 26 24 29 32 31 28 32 31 35 44 46 51 54 54
13 14 16 18 16 19 18 24 24 46 73 70 84 62 52 56 55 48 42 34 24 22 27 29 30 31 34 33 34 32 29 26 25 33 30 26 26 30 33 34 36 40 43 47 48
16 16 16 17 28 35 26 34 46 95 90 79 84 67 60 58 58 53 47 40 28 23 24 24 25 26 30 33 33 32 29 26 31 31 30 27 34 36 36 34 34 40 45 47 47
12 22 19 16 16 26 23 52 60 100 83 76 87 83 64 60 57 62 49 45 37 28 24 22 20 19 23 30 33 33 28 28 32 30 25 30 37 42 42 38 36 38 45 48 50
18 21 30 22 18 16 75 69 58 73 100 89 89 100 66 62 57 62 53 45 39 32 26 24 17 21 26 28 32 33 27 31 33 29 25 23 34 44 42 41 39 37 43 46 47
31 21 26 32 27 34 37 60 53 99 100 100 100 100 86 61 58 63 55 48 46 37 26 20 16 24 29 32 35 31 28 37 34 28 25 20 27 40 40 44 46 43 44 45 48
42 28 21 26 30 34 65 46 48 100 100 100 97 100 100 82 72 62 54 43 33 30 24 22 25 32 36 37 34 31 35 40 34 29 25 20 19 36 40 38 38 41 42 45 50
68 18 13 15 28 76 86 59 69 99 100 100 100 100 99 91 75 64 47 44 32 29 32 35 38 42 41 36 32 31 38 43 39 31 26 21 18 24 34 35 36 35 34 38 44
72 42 20 17 22 59 31 81 44 69 99 100 100 98 100 100 91 81 69 65 57 42 35 39 34 34 32 33 33 34 40 43 41 32 26 21 18 20 23 33 33 31 38 43 42
100 100 96 81 50 34 20 22 22 58 100 100 100 100 98 100 100 100 84 64 52 38 30 27 24 23 24 26 29 34 45 44 39 33 28 21 16 15 17 24 31 40 40 38 38
100 95 100 100 67 33 32 24 44 49 97 100 100 100 100 100 100 100 95 74 63 52 42 36 33 29 27 32 35 37 42 42 36 33 26 17 15 15 16 20 29 33 30 30 32
100 89 99 68 96 38 34 23 80 100 100 100 100 100 100 100 100 99 99 95 78 68 58 56 54 48 39 32 28 28 32 32 29 25 17 16 16 17 19 20 31 34 36 40 43
100 88 68 49 90 100 52 34 26 43 86 98 99 100 100 100 97 100 100 100 100 91 77 67 62 61 56 49 43 35 28 23 21 21 22 24 25 25 23 27 30 30 29 35 38
100 81 58 100 99 80 49 100 58 48 38 68 100 100 99 98 99 100 100 100 95 98 96 85 76 68 60 57 54 44 47 44 41 39 37 34 34 33 31 34 34 35 42 50 50

GFSSW_500_rhum_192.txt.gz
RH
19 28 30 26 22 24 20 17 16 14 13 12 11 12 12 11 10 8 8 8 7 6 6 6 6 6 6 5 5 5 5 6 6 9 14 15 16 18 20 24 28 33 31 24 22
6 6 7 16 27 27 24 24 19 16 15 15 13 11 11 11 10 9 10 9 8 8 8 7 7 6 6 6 6 6 6 6 6 6 7 9 13 15 16 22 25 30 32 30 28
8 6 6 5 5 11 26 25 24 21 17 15 16 13 10 12 11 12 11 11 11 10 10 10 8 8 7 6 7 7 7 7 7 7 8 9 8 8 11 14 19 24 30 32 31
14 14 22 26 21 5 6 18 28 20 21 20 15 17 13 12 14 14 14 14 12 13 13 11 10 8 8 7 7 7 8 7 8 9 11 13 13 11 8 7 11 16 20 23 24
22 22 20 26 40 29 33 6 22 29 20 20 22 17 18 15 16 14 18 16 14 16 16 12 10 9 9 10 12 14 15 15 16 20 19 17 17 15 19 18 13 11 11 16 18
27 27 29 29 30 38 44 27 9 27 33 22 20 22 18 19 16 15 15 20 16 19 21 14 12 15 15 17 19 27 19 23 22 29 28 29 33 31 32 40 28 23 17 14 13
40 38 36 29 26 17 15 26 22 10 28 36 24 20 21 21 19 18 17 19 19 19 22 17 17 19 20 21 18 25 21 24 28 26 31 34 31 32 29 31 35 45 42 30 24
38 36 31 21 20 24 12 7 8 6 6 26 34 25 26 22 22 17 19 18 20 21 22 20 22 23 23 21 22 23 26 26 34 33 30 31 31 28 28 30 36 35 37 44 39
34 30 24 23 16 13 10 8 7 6 6 6 8 28 30 27 30 23 19 20 20 21 23 24 24 24 23 23 24 27 28 27 26 29 30 30 29 28 30 31 31 36 40 36 44
7 6 7 8 8 10 8 7 6 5 5 4 4 10 25 30 35 31 26 21 20 24 24 26 26 26 25 25 26 28 28 25 26 29 28 26 27 28 29 30 32 34 43 47 44
7 7 6 6 7 7 8 6 5 5 4 4 4 9 27 32 31 40 37 26 21 22 27 27 27 28 31 28 22 25 28 27 26 29 28 27 25 24 25 29 34 40 44 55 56
6 6 6 6 6 6 7 8 8 7 4 4 4 4 31 48 36 43 40 38 31 29 24 27 32 34 30 28 26 29 28 30 29 28 27 25 27 26 26 33 38 36 42 55 58
6 6 6 7 8 11 10 11 11 10 9 6 6 5 7 71 50 46 48 43 42 31 29 32 35 35 35 29 27 29 29 31 32 30 26 23 24 30 32 29 30 36 40 45 60
6 6 7 10 12 12 12 17 18 14 13 8 6 9 12 52 63 50 62 48 44 41 37 33 31 36 38 36 33 28 28 28 29 28 26 25 25 31 30 30 30 29 36 44 50
7 7 10 13 14 15 15 16 17 24 20 10 10 14 20 56 68 63 77 60 49 48 38 30 32 33 35 37 37 35 33 32 30 29 27 26 28 28 27 27 28 30 31 38 44
6 8 8 13 18 18 17 18 17 23 25 26 20 29 29 46 83 68 74 71 57 51 40 30 28 31 32 34 35 36 37 36 34 31 27 28 29 25 29 33 32 31 31 36 43
12 41 80 12 20 30 22 40 34 47 39 38 45 53 74 63 98 82 70 76 63 52 41 32 25 26 30 31 31 31 34 36 34 32 27 30 27 24 28 36 34 32 31 31 36
91 27 54 62 37 37 39 66 80 58 56 38 60 100 100 100 99 98 74 79 79 60 50 39 27 24 25 27 26 28 31 34 33 32 28 30 27 22 24 38 40 36 34 36 41
93 85 72 44 100 46 60 97 46 37 52 46 54 100 100 100 100 100 79 71 83 66 60 49 36 31 26 23 21 21 23 34 34 31 28 30 27 23 18 28 38 40 39 38 42
100 100 85 94 85 47 46 98 38 68 81 57 67 100 100 100 100 100 96 70 72 70 64 58 51 36 29 26 19 20 31 32 31 30 29 30 27 24 18 18 28 34 38 44 47
100 100 99 100 97 63 48 44 60 52 36 51 88 100 100 100 100 100 100 82 69 72 65 58 50 36 30 24 24 29 27 30 34 32 34 34 29 26 21 16 18 28 32 39 43
100 100 100 98 100 56 39 100 95 46 40 54 96 100 100 100 100 100 95 99 76 59 56 49 42 33 34 34 35 36 35 35 34 32 35 37 31 27 22 16 14 19 28 32 34
95 91 98 100 96 57 30 35 53 56 100 88 98 100 100 100 100 100 100 100 86 57 41 53 45 41 39 44 39 37 38 35 32 34 40 39 34 29 24 19 13 14 15 22 27
100 100 81 94 90 60 31 30 97 100 94 89 99 95 100 100 100 100 100 100 99 84 56 60 47 52 51 44 44 39 36 34 36 43 42 40 37 32 25 17 13 13 18 19 20
100 93 98 100 83 95 64 29 31 41 58 75 72 97 100 100 100 100 100 100 100 100 71 56 48 39 36 32 32 33 35 34 34 45 40 38 30 25 19 14 14 18 20 20 23
88 96 100 100 100 100 86 74 44 36 25 61 63 100 100 99 100 100 100 100 100 100 92 54 45 39 37 33 30 28 28 29 30 30 36 33 26 18 15 18 24 25 24 25 27
93 100 100 100 96 59 79 71 76 64 29 59 98 100 98 100 100 100 100 100 97 95 97 77 50 46 45 45 44 36 34 32 31 28 27 25 29 28 30 32 31 29 30 34 36

GFSSW_500_rhum_195.txt.gz
RH
6 7 6 8 17 25 28 25 19 21 20 16 14 14 14 14 11 12 12 13 13 12 12 10 9 9 8 8 7 7 6 6 7 10 16 18 16 15 15 23 28 29 28 28 27
9 10 10 8 6 6 8 11 21 26 18 21 20 17 15 15 14 11 12 11 12 11 10 9 8 8 7 6 6 6 6 6 6 6 6 7 9 11 12 17 24 28 30 29 31
16 15 15 15 14 7 9 6 7 9 26 21 19 23 21 18 16 13 11 11 11 13 13 11 10 9 8 8 8 8 8 7 7 6 6 6 6 6 6 11 17 20 23 28 32
21 53 31 19 20 20 17 23 19 6 9 20 23 18 24 25 20 18 15 14 13 13 14 13 11 12 12 10 9 9 8 9 8 8 8 8 7 6 6 6 7 12 18 23 30
43 41 91 71 23 25 26 23 23 29 20 19 18 23 19 26 26 22 22 22 17 14 14 14 16 17 14 12 10 9 10 9 9 8 9 9 8 8 12 13 10 9 8 10 18
54 48 44 67 83 39 28 29 28 26 28 34 18 18 24 25 25 28 26 25 25 19 17 15 20 20 14 14 12 15 13 14 14 14 13 15 17 15 23 23 12 12 15 16 11
65 64 58 49 42 49 62 31 29 28 26 23 30 10 27 29 24 30 32 27 26 28 23 18 22 21 17 15 15 19 15 17 20 26 19 23 23 28 26 24 29 26 20 18 26
67 64 61 56 49 43 38 32 34 33 22 19 15 20 18 33 29 30 35 36 28 24 27 23 21 22 16 17 19 22 18 17 24 26 21 25 26 24 27 25 25 26 26 28 26
54 43 24 15 12 11 11 13 19 22 20 15 15 13 8 13 40 27 32 35 36 28 26 25 22 21 18 21 22 23 23 22 22 24 26 24 24 22 23 24 26 28 30 30 36
16 10 9 8 8 8 7 6 6 6 8 7 8 9 9 7 31 37 31 37 37 33 27 26 23 22 17 21 21 25 28 25 24 27 25 26 26 25 26 27 28 30 30 32 33
8 7 6 4 4 5 5 6 6 7 8 6 6 7 6 5 10 29 36 35 37 35 30 30 23 21 32 30 27 28 25 26 24 24 25 28 26 26 25 24 25 24 27 30 35
10 7 5 5 4 5 4 6 8 7 6 6 5 6 6 5 5 6 34 37 39 40 41 26 23 34 29 25 23 27 28 27 25 26 28 27 25 25 25 25 25 26 28 30 34
5 4 4 4 4 4 5 6 10 10 9 7 6 5 5 4 4 4 14 43 41 47 38 33 38 34 28 28 29 31 33 30 27 30 32 30 28 26 24 24 27 29 28 28 33
4 4 4 4 4 6 6 12 27 35 29 10 10 6 5 5 4 4 5 47 44 50 51 45 41 34 32 34 35 34 34 31 30 30 29 30 28 27 26 26 26 27 27 28 30
3 4 4 5 5 6 10 15 21 53 79 34 16 11 8 7 5 4 8 49 61 64 54 42 46 40 34 36 40 38 37 32 31 30 28 28 28 25 27 29 28 27 25 26 29
5 10 66 59 64 28 18 37 40 74 74 39 30 13 13 10 8 6 10 26 79 85 70 57 46 40 39 38 39 40 40 39 37 32 26 27 28 25 28 29 24 25 29 29 28
36 86 95 100 99 98 53 49 78 58 40 43 33 27 20 18 13 10 10 23 69 69 75 60 51 40 38 37 36 35 39 38 38 36 29 28 31 27 28 26 22 26 33 33 31
99 94 98 100 100 100 99 82 96 80 92 57 51 37 30 28 59 51 28 32 100 84 83 76 57 46 38 34 33 34 36 36 36 34 32 32 30 28 28 26 19 24 36 36 35
100 100 100 100 99 100 100 100 93 80 58 48 55 56 59 80 74 100 80 41 100 90 81 83 68 51 40 33 32 33 32 34 33 32 30 30 29 28 28 26 18 20 28 37 38
100 100 100 100 89 99 100 89 88 45 41 57 69 77 57 50 100 100 100 85 94 99 92 94 78 61 46 35 30 30 36 36 32 31 28 25 27 29 30 26 20 15 22 29 33
100 96 100 98 99 98 100 85 95 46 62 98 39 64 64 67 99 100 100 98 100 100 100 100 94 75 59 43 31 28 28 29 31 29 25 25 27 30 32 28 23 18 14 23 29
100 94 100 100 85 100 100 100 62 55 100 67 62 92 81 95 100 100 100 100 100 100 94 97 98 85 68 56 45 35 29 28 26 24 28 28 28 32 35 31 28 22 15 13 16
90 85 100 92 78 96 100 98 81 91 78 64 96 79 69 100 100 100 100 100 100 100 92 91 94 93 78 66 54 40 34 29 24 25 30 32 29 35 36 35 30 25 20 13 13
84 93 100 71 81 71 99 97 57 41 56 89 68 58 65 96 100 100 100 100 100 100 97 100 98 95 71 63 53 40 34 33 34 37 31 33 38 40 39 36 33 29 22 14 12
87 97 100 100 79 100 94 81 44 49 94 99 78 72 91 100 100 100 100 100 100 100 100 96 85 97 72 61 59 51 59 53 43 42 42 49 44 42 38 38 34 26 18 14 14
100 100 92 100 100 100 96 63 43 47 90 100 100 100 100 99 100 100 100 100 100 100 100 97 77 82 61 60 64 67 61 50 47 43 39 38 45 44 39 34 28 21 16 18 22
84 91 98 100 100 100 100 100 84 40 55 92 100 99 92 100 100 100 100 100 100 100 100 100 96 100 100 99 85 63 48 45 43 44 48 38 52 37 28 22 20 23 28 30 30

GFSSW_500_rhum_198.txt.gz
RH
11 9 8 8 8 8 7 13 29 30 20 21 21 18 17 17 19 20 20 21 29 32 33 36 35 34 32 31 28 26 24 23 22 22 21 18 18 20 19 19 22 24 29 30 28
16 13 14 14 14 12 12 9 6 11 27 28 20 19 20 18 16 16 18 16 15 18 19 20 21 19 19 17 17 16 14 11 10 9 9 9 10 14 18 20 19 22 28 32 32
41 35 26 19 16 17 17 17 17 8 7 16 30 25 17 20 21 19 18 18 17 15 14 13 12 11 10 9 9 9 8 7 7 6 6 6 6 6 7 11 19 20 21 26 31
53 46 44 44 41 35 52 67 22 22 18 12 13 28 29 19 20 22 22 20 19 17 17 16 14 11 11 10 11 9 10 10 8 7 7 6 6 6 6 6 6 7 13 20 26
63 66 57 50 56 59 57 67 97 56 25 23 19 15 27 32 21 19 24 27 23 22 19 20 19 16 12 12 12 12 12 11 10 10 8 8 7 7 8 7 7 7 8 10 15
60 64 66 69 65 85 67 50 53 97 70 30 28 23 19 34 30 24 22 24 30 28 23 25 27 21 15 14 14 16 12 11 11 10 8 7 7 8 9 8 8 8 9 11 10
53 55 60 63 65 66 64 62 53 46 91 94 66 30 27 21 35 32 26 23 29 32 32 26 27 23 18 21 17 15 14 12 12 13 12 10 11 14 14 11 16 20 21 18 16
47 47 42 36 35 34 45 54 57 56 46 43 88 47 30 16 24 36 36 29 29 36 36 32 27 27 23 20 21 16 13 11 18 20 17 15 24 25 20 19 25 27 23 22 24
28 25 18 11 8 7 7 7 8 13 22 23 32 35 30 23 12 19 40 35 33 38 40 36 33 29 25 25 21 15 17 16 23 26 20 21 23 27 24 22 20 20 21 24 29
18 13 11 10 8 6 6 6 6 6 5 6 11 11 23 19 15 10 25 47 35 36 39 40 35 30 26 24 23 21 22 22 25 27 24 24 24 22 19 22 22 25 29 30 31
19 17 14 12 8 7 7 5 7 6 6 6 5 5 9 9 12 11 9 31 43 36 34 45 37 26 36 34 31 27 24 24 26 23 25 26 22 18 24 24 25 24 24 24 25
10 10 9 9 8 7 7 5 5 6 6 6 5 4 4 4 6 7 8 13 25 46 40 31 31 44 41 37 35 28 26 26 24 26 29 26 21 19 22 24 26 25 24 24 25
8 5 4 3 3 4 4 4 5 5 8 7 6 5 6 6 5 5 7 7 8 44 44 36 40 53 43 39 37 31 24 27 26 28 28 27 23 21 20 24 26 25 24 26 28
2 2 2 2 3 3 3 5 6 7 38 11 17 6 7 8 6 5 5 7 6 15 49 42 43 49 42 38 38 35 35 32 30 29 27 28 23 26 24 26 26 25 25 26 27
2 3 4 6 18 33 23 44 40 39 62 44 34 25 14 14 10 8 7 8 6 6 13 30 48 50 51 43 42 38 39 36 33 32 31 27 27 24 25 25 26 26 26 28 26
4 8 37 82 93 96 100 100 81 100 88 99 70 61 45 24 14 12 9 7 6 6 6 18 47 53 52 52 46 41 41 40 38 33 26 28 26 21 23 25 27 26 26 23 23
48 71 96 100 100 100 100 100 100 99 64 65 57 53 43 40 31 18 14 8 6 5 4 5 34 50 55 56 48 42 41 42 44 35 22 26 24 21 22 25 27 26 25 21 25
96 100 100 100 100 100 93 100 100 99 81 70 70 74 71 47 30 17 14 11 7 6 5 6 23 50 60 57 46 43 41 41 42 36 30 30 24 23 25 26 28 27 25 19 26
99 100 100 100 99 100 97 100 100 73 80 100 78 66 64 60 32 24 20 15 9 7 6 7 22 63 72 65 54 43 42 43 42 39 36 32 27 28 29 28 28 27 24 16 24
100 100 100 98 95 100 100 100 99 100 85 79 72 86 79 100 80 55 37 45 17 10 12 19 56 73 85 71 57 47 44 44 41 39 37 30 27 30 28 30 29 27 23 16 18
100 99 100 96 95 100 98 88 100 100 82 100 100 89 55 73 100 97 96 79 100 86 33 60 88 94 95 84 61 48 42 40 40 39 33 30 27 30 28 30 29 27 25 21 14
100 88 100 100 95 82 77 77 100 100 100 98 82 64 47 78 90 82 77 99 100 100 100 91 100 100 95 92 78 56 44 42 40 37 35 32 29 28 29 31 30 29 28 24 20
100 93 86 89 87 92 86 64 88 100 100 88 100 96 96 77 84 81 88 100 100 100 100 97 100 99 98 100 87 63 45 38 34 36 37 40 33 37 34 33 32 33 31 29 24
83 97 96 96 100 98 85 83 93 87 80 78 83 100 100 100 100 97 100 100 100 96 100 100 95 96 79 68 76 66 50 43 38 35 30 28 33 38 40 40 40 38 34 32 29
97 92 99 100 86 83 100 91 100 98 92 56 86 100 98 100 100 97 100 100 100 100 100 100 82 91 88 90 94 84 70 61 45 38 34 36 35 46 45 44 43 40 39 36 32
90 100 95 87 100 99 86 86 85 78 71 66 87 95 100 90 98 100 100 100 100 100 100 100 74 88 94 98 98 96 81 64 54 44 38 43 54 58 51 44 46 46 41 36 28
90 98 82 86 87 100 97 91 74 67 52 60 100 100 100 98 100 96 100 100 99 100 100 99 99 98 99 100 99 97 83 63 51 47 43 36 54 58 54 54 51 45 39 30 20

GFSSW_500_rhum_201.txt.gz
RH
49 45 38 20 14 14 12 10 8 8 26 33 25 27 26 20 21 30 38 40 40 43 44 45 47 47 46 43 40 37 31 30 30 31 29 25 23 22 22 21 19 21 24 26 22
63 53 51 45 39 24 16 16 16 14 10 8 31 31 22 25 23 18 22 26 27 27 31 39 42 42 43 42 39 36 32 33 31 30 28 26 23 22 21 22 20 22 24 26 25
72 72 59 56 57 46 42 39 22 18 19 15 13 14 34 29 25 25 21 21 20 20 19 22 30 30 30 29 32 31 29 28 25 23 21 20 18 16 16 16 22 25 23 22 24
63 64 68 58 55 60 58 50 46 44 27 38 20 21 9 25 35 28 25 22 23 21 19 17 18 19 18 18 16 20 18 17 15 12 10 9 8 8 8 8 10 14 17 21 22
51 56 59 56 55 60 59 61 64 52 78 59 76 83 27 16 26 36 32 28 24 23 21 19 19 17 18 16 14 12 12 11 10 9 8 7 6 6 7 7 7 7 8 9 12
54 50 48 44 47 53 57 57 63 67 94 96 96 95 91 26 17 22 40 33 32 25 25 25 22 20 18 18 15 16 13 13 10 9 8 8 7 7 8 8 8 8 8 8 8
46 35 30 25 20 18 26 30 38 50 67 79 78 80 91 97 29 19 30 43 33 33 28 29 28 23 19 24 20 17 17 16 13 13 11 9 7 9 10 8 9 8 9 10 10
32 25 22 19 17 13 12 13 13 11 12 21 42 57 66 81 84 40 20 34 42 33 34 31 30 28 25 21 27 22 19 16 20 18 13 10 17 13 10 12 15 18 18 17 17
24 21 14 11 8 7 6 6 7 9 12 10 11 11 22 37 84 94 29 18 42 42 34 36 32 29 28 25 25 24 19 24 24 19 17 14 24 21 20 20 22 24 27 26 19
20 12 11 10 11 10 9 8 6 6 6 8 9 8 9 8 17 71 93 30 18 51 39 34 36 33 29 28 24 29 32 30 25 23 25 23 22 29 24 23 21 20 20 19 26
12 14 12 10 10 9 8 7 6 6 6 6 7 7 8 7 8 12 38 62 25 21 44 43 35 28 42 43 41 34 32 33 26 21 24 27 21 23 19 18 20 23 24 26 25
16 13 9 8 7 5 4 3 3 3 4 5 6 6 6 6 6 6 11 50 34 25 36 45 35 42 50 44 39 38 30 33 30 26 28 24 22 22 19 20 24 25 24 24 24
8 6 4 3 2 2 2 2 4 4 3 3 5 5 6 6 6 6 7 9 11 28 16 39 51 47 43 47 39 38 32 32 32 30 24 23 20 22 18 21 24 23 26 26 24
3 2 2 2 3 6 7 23 19 66 31 3 6 7 7 7 7 6 6 6 7 9 9 10 48 50 40 42 45 38 39 37 34 31 26 24 19 23 18 18 23 22 26 26 24
2 2 3 6 24 39 66 61 100 100 100 28 10 16 18 14 11 10 10 8 8 9 9 10 12 38 49 44 56 44 44 41 39 34 31 27 23 22 20 20 26 28 26 25 25
3 6 37 96 100 100 100 96 100 100 100 78 42 42 39 26 28 17 16 14 10 11 8 8 10 25 46 51 55 57 48 41 40 40 28 26 22 16 22 24 26 27 24 25 25
9 47 94 100 100 100 100 100 100 100 99 78 77 78 82 60 40 43 27 16 15 10 6 7 8 13 51 55 51 55 52 45 40 40 26 25 24 15 22 25 26 25 25 26 25
27 99 100 100 100 100 100 100 100 88 100 86 98 91 99 65 46 59 59 32 24 19 11 9 8 7 18 42 50 54 57 47 39 35 32 34 23 20 22 21 25 26 26 28 26
96 100 100 100 96 87 100 100 100 100 91 100 100 88 98 95 65 54 47 41 28 21 16 11 9 8 8 32 68 61 56 55 46 38 36 33 27 26 25 26 26 28 28 28 26
100 100 100 100 95 87 95 100 100 96 100 100 69 100 93 100 94 61 40 30 22 19 17 15 11 9 11 22 51 64 68 59 50 42 38 33 31 32 31 31 32 34 31 29 27
100 99 99 91 94 96 96 95 96 100 100 86 92 95 100 95 100 84 70 46 39 46 70 45 18 12 11 14 21 49 62 57 51 45 36 35 32 34 36 36 36 34 31 30 28
98 87 99 89 95 98 96 100 100 99 99 100 100 98 69 82 100 100 100 100 53 34 48 96 93 16 13 10 31 51 71 68 57 45 39 35 34 34 36 37 35 33 31 31 29
91 96 85 96 83 86 100 99 95 95 95 87 98 100 100 100 99 89 98 100 99 94 71 100 100 88 25 26 44 50 63 66 56 50 43 42 33 38 35 39 38 36 35 33 33
96 95 95 95 96 100 98 82 68 61 74 100 100 100 100 100 70 80 85 98 94 96 96 100 98 91 30 9 20 21 34 63 61 51 42 37 37 42 45 50 46 38 38 38 37
100 89 99 100 96 100 98 89 68 68 71 97 100 93 97 100 100 100 97 98 65 92 100 100 88 93 64 37 53 61 89 94 74 56 47 41 40 43 45 43 48 46 44 42 41
78 71 100 97 92 91 100 83 100 98 89 84 70 92 94 100 100 100 100 89 87 100 100 100 82 87 83 65 85 94 96 96 88 69 51 42 38 38 39 40 45 52 51 50 45
90 100 91 69 70 97 100 100 91 96 77 54 66 54 81 98 100 100 100 100 99 100 100 96 94 97 82 80 71 98 84 80 86 79 56 44 39 39 38 42 44 51 58 54 48

GFSSW_500_rhum_204.txt.gz
RH
61 70 69 62 54 48 49 39 19 12 9 10 34 38 30 39 27 22 40 56 56 55 54 54 54 52 53 52 50 48 38 33 35 34 32 29 27 24 22 21 20 20 20 20 19
68 66 62 69 62 56 46 50 50 36 15 16 11 10 33 33 34 31 23 26 40 48 49 51 53 53 51 50 50 48 43 42 40 39 35 32 29 27 24 23 20 19 18 19 20
65 61 55 61 60 61 53 46 48 60 43 22 16 22 19 14 36 35 31 25 23 27 34 39 43 46 48 48 45 45 43 44 43 40 37 34 30 28 25 24 25 23 19 18 17
58 62 70 61 63 64 57 50 43 51 63 50 43 22 28 22 13 33 38 31 28 25 25 27 28 30 37 42 43 42 42 39 38 38 36 33 30 28 25 24 26 23 20 18 20
59 62 57 51 50 41 39 43 52 47 57 64 72 79 33 39 35 19 20 44 33 31 28 25 24 22 24 28 33 35 31 27 28 30 30 29 27 24 21 19 16 14 14 15 17
82 54 43 35 30 25 21 19 28 40 46 57 59 69 83 74 68 76 40 20 46 33 34 31 26 25 22 21 23 26 23 20 19 20 21 20 19 17 12 8 8 7 7 7 7
79 55 37 26 22 17 11 9 10 16 20 22 25 37 56 96 95 91 89 28 20 49 34 36 32 26 22 22 21 20 21 17 14 13 12 12 12 10 10 9 8 7 7 6 6
62 39 24 19 15 13 7 6 5 5 7 8 13 14 18 56 91 97 100 48 18 30 53 34 37 32 25 21 24 21 19 17 15 15 14 14 17 16 12 10 10 9 9 8 8
24 22 22 24 19 18 16 15 12 8 7 7 8 7 16 10 42 91 95 93 35 18 40 50 34 36 33 27 25 25 19 17 22 23 20 16 20 22 16 11 10 9 10 10 9
27 30 28 22 14 11 11 11 9 8 6 6 8 9 10 8 9 14 53 95 94 23 19 45 44 34 33 30 23 29 32 30 28 27 26 19 19 27 20 16 15 14 14 14 14
32 27 22 18 12 8 6 5 4 4 4 4 4 5 6 9 8 8 9 27 88 73 17 29 49 34 36 44 44 35 33 32 28 27 26 21 22 21 22 20 18 22 22 23 22
29 21 14 10 6 4 3 3 2 3 3 4 4 4 3 5 6 8 8 10 21 81 31 14 31 50 47 47 44 41 35 33 31 26 27 26 23 23 19 25 23 23 21 18 17
18 10 5 3 2 2 2 3 3 8 8 4 11 6 4 5 6 7 7 8 10 19 92 68 14 63 54 44 46 43 40 38 33 30 28 27 23 24 21 21 21 20 22 23 22
8 4 2 2 3 12 25 55 75 84 96 11 58 35 9 5 6 7 7 8 8 12 21 93 52 17 56 46 46 46 47 45 42 33 31 28 24 25 24 21 21 20 24 24 25
3 2 3 5 24 71 85 100 100 100 92 64 64 71 36 7 8 10 9 10 9 9 15 34 84 81 31 59 53 54 56 50 43 37 31 29 25 22 25 20 25 22 25 24 26
2 4 8 32 100 100 100 100 100 100 100 97 55 65 52 31 10 16 25 12 30 20 13 16 19 58 76 41 63 51 56 55 45 41 30 28 25 16 27 24 25 22 23 24 27
4 9 42 90 100 100 100 100 99 100 100 100 93 66 71 61 47 46 31 27 24 28 10 10 12 12 26 66 69 55 54 58 50 39 26 26 25 15 25 26 24 25 24 28 26
7 55 95 87 100 100 100 100 100 100 98 100 94 99 98 97 67 65 49 51 39 24 33 12 11 9 10 12 37 73 58 54 52 36 30 28 24 18 26 26 26 25 29 27 25
26 92 98 90 94 94 99 100 100 92 87 85 82 100 100 88 100 87 80 65 69 33 27 24 17 14 11 10 20 65 60 56 57 47 38 29 24 28 27 30 29 28 30 28 25
54 100 90 85 86 91 100 92 98 98 89 100 100 92 100 100 81 70 79 77 78 62 38 26 27 19 13 10 12 39 92 71 57 54 43 32 29 29 28 32 31 31 31 30 28
72 98 93 78 93 98 99 97 100 100 95 100 100 100 100 97 100 98 86 69 63 61 40 33 26 22 17 10 9 20 77 76 59 52 44 43 31 31 31 33 34 32 32 32 32
80 89 100 85 89 96 100 99 100 100 98 94 100 100 99 100 100 100 100 98 88 53 45 39 28 22 19 13 10 10 41 81 59 45 42 46 46 36 32 34 36 38 38 37 36
92 83 86 76 78 84 95 98 90 100 94 84 73 93 99 100 100 100 100 100 98 78 98 89 100 99 69 23 14 10 10 34 50 57 48 51 40 44 32 34 35 38 40 40 37
86 76 76 81 94 98 98 97 82 76 80 68 82 84 100 88 86 100 99 100 100 91 61 68 70 98 100 72 26 10 8 11 35 39 36 40 51 51 46 37 37 39 40 39 37
66 77 81 100 98 82 63 57 62 66 53 58 75 81 100 100 91 90 100 99 98 100 100 90 60 43 83 78 55 31 13 9 21 22 36 41 51 55 51 48 39 37 37 38 38
62 75 100 87 76 100 100 100 87 67 48 49 64 94 92 100 96 100 100 97 90 87 92 97 99 64 70 78 63 37 18 18 13 36 51 51 50 56 48 43 43 42 47 45 38
85 95 95 72 61 82 89 100 100 100 97 93 64 81 98 95 92 100 99 100 91 100 97 88 98 69 75 84 72 50 19 11 11 17 16 18 42 58 49 44 41 44 54 51 46

GFSSW_500_rhum_207.txt.gz
RH
17 18 33 54 68 68 64 56 53 59 44 24 68 34 20 45 39 44 27 53 60 65 64 63 63 65 74 68 53 54 41 37 38 39 39 29 29 28 24 23 21 20 19 19 17
15 18 26 62 65 66 73 74 65 51 56 59 22 25 28 12 53 40 41 29 40 58 63 65 63 62 62 62 61 61 43 46 49 42 43 35 33 30 27 24 23 23 22 20 19
14 17 47 81 76 79 71 70 74 68 51 54 62 30 17 24 13 38 42 38 32 31 47 59 61 62 60 58 57 54 49 52 49 51 47 42 37 32 31 25 26 24 21 22 20
14 26 54 82 90 66 54 53 56 55 55 54 60 62 43 23 28 19 21 40 40 34 29 34 47 52 56 56 56 54 53 50 49 50 47 44 40 37 34 30 27 24 24 22 19
22 46 62 76 85 74 40 33 31 31 32 42 53 58 66 50 30 22 29 15 43 43 34 30 30 36 43 46 51 51 52 50 48 48 46 44 42 40 35 31 31 26 26 23 22
38 52 67 64 56 46 53 20 18 18 20 25 33 42 55 57 56 42 27 52 16 42 45 36 33 32 31 34 37 41 44 46 45 45 44 43 42 38 37 34 33 29 27 24 22
45 48 47 29 19 18 17 17 18 15 10 9 10 20 26 42 61 77 64 37 58 26 36 46 39 34 30 29 27 28 33 34 38 39 38 37 37 35 32 31 29 27 23 20 16
45 39 28 32 34 32 29 28 25 24 20 17 14 8 14 16 31 51 80 87 65 74 62 38 45 40 36 29 27 25 27 27 29 29 30 30 27 25 24 22 21 18 15 11 8
39 37 37 34 32 31 29 26 23 20 13 9 14 15 13 10 10 20 43 90 99 96 88 30 47 42 39 34 35 28 24 22 26 26 24 23 24 24 21 16 14 12 10 8 7
32 37 33 29 25 22 19 17 14 12 10 9 7 8 20 15 8 8 12 30 96 100 94 52 22 45 38 36 30 32 29 28 28 24 26 20 19 21 22 18 14 10 9 8 8
37 33 24 17 13 11 8 7 6 4 4 4 4 4 5 9 9 9 9 10 31 95 99 79 28 30 36 39 47 43 39 35 30 24 25 20 18 18 18 14 15 12 9 9 9
33 22 16 13 9 4 3 2 2 2 3 4 5 4 3 4 6 8 10 10 10 41 87 99 56 22 56 56 47 43 43 37 35 25 25 25 18 21 17 13 16 16 11 12 13
24 17 12 7 3 2 2 5 11 18 16 12 9 11 6 4 8 9 7 13 10 11 28 84 97 26 28 69 50 45 45 44 38 30 27 28 20 21 19 21 22 18 16 17 19
18 13 6 2 2 5 13 51 91 100 96 36 52 38 19 7 23 80 11 9 12 10 12 41 89 83 17 53 65 48 51 52 43 38 34 26 20 23 21 17 20 25 24 27 22
15 8 2 2 6 31 71 100 100 100 94 96 96 82 75 56 34 42 96 62 19 12 11 19 68 97 41 18 67 62 60 58 53 44 38 25 23 21 20 18 19 26 30 28 20
9 3 2 8 49 88 100 100 100 100 99 93 98 88 96 87 74 63 45 48 83 31 15 18 29 44 100 43 29 81 62 61 59 50 34 29 23 17 18 21 27 28 26 25 25
4 2 5 22 71 98 99 100 100 98 100 98 98 98 85 65 88 80 74 74 65 79 46 14 16 28 63 99 20 62 90 62 64 53 26 28 25 15 22 25 27 27 30 26 26
2 4 14 49 85 86 99 100 92 91 100 100 99 100 99 90 95 100 94 94 83 64 85 47 17 18 33 73 67 28 74 70 60 49 40 32 21 15 24 24 28 29 31 27 26
3 10 31 82 70 76 94 96 83 100 97 100 100 100 100 100 100 100 98 91 87 77 83 100 75 21 19 26 81 87 63 91 69 52 49 32 26 25 28 28 28 28 31 28 25
5 26 43 65 76 99 97 94 100 100 100 100 99 90 96 98 100 98 100 100 100 77 82 98 100 58 19 20 20 46 84 93 86 61 48 45 33 30 29 30 29 29 31 31 29
8 26 77 70 89 94 80 92 88 98 100 100 95 93 100 88 100 99 92 97 83 100 70 79 100 93 36 17 16 14 25 86 96 78 59 63 47 36 31 31 32 30 30 31 32
10 30 66 66 72 64 78 94 90 100 100 100 95 100 100 100 98 100 99 100 95 92 94 79 100 95 52 29 20 14 15 20 63 81 70 66 88 64 33 31 33 34 33 35 35
14 32 62 61 73 81 86 87 87 99 95 90 90 100 99 99 100 100 100 100 94 78 97 99 91 94 92 39 22 14 12 10 20 81 80 72 68 80 49 35 34 36 39 36 35
22 32 56 79 88 93 64 68 76 82 67 76 74 100 98 97 96 98 99 100 100 100 100 100 95 68 70 39 26 17 12 10 14 44 73 82 70 64 71 47 36 36 37 40 39
30 40 74 97 66 53 73 68 57 61 52 59 67 76 99 98 96 94 100 100 100 79 100 98 90 84 100 100 60 20 17 12 10 12 51 82 70 77 61 66 49 44 41 43 41
41 59 76 84 85 100 100 98 82 65 53 59 62 55 85 100 100 98 100 95 93 99 80 87 64 71 86 100 99 93 58 15 10 10 20 70 70 60 62 62 56 48 42 42 43
44 60 70 59 60 67 96 99 74 97 100 70 55 56 94 100 100 94 86 91 91 100 100 99 81 74 58 56 72 87 48 26 11 10 9 12 53 56 48 62 59 57 53 46 45

GFSSW_500_rhum_210.txt.gz
RH
11 11 11 12 17 28 51 82 86 85 79 82 66 32 14 55 83 32 53 43 48 69 71 71 73 78 85 92 79 63 36 24 40 41 40 31 30 33 24 16 20 13 16 15 12
11 9 10 13 23 31 44 75 87 80 76 78 78 76 46 23 65 89 34 50 46 39 68 72 70 70 72 77 92 88 59 45 56 54 44 37 35 36 32 29 23 22 17 18 15
11 8 10 16 26 36 58 76 93 72 58 58 60 67 76 54 32 56 59 32 49 45 34 60 71 69 68 68 69 70 72 67 66 53 43 44 44 37 36 29 29 27 20 24 20
10 9 14 22 35 43 66 77 86 80 47 48 47 53 60 63 53 32 27 24 43 51 44 35 53 67 68 65 65 64 68 77 78 63 48 53 50 40 43 38 32 25 24 24 22
10 11 24 36 43 48 58 52 47 62 72 34 36 38 37 43 48 57 32 29 20 51 49 46 36 42 60 63 64 63 60 63 69 73 71 57 47 44 45 38 38 26 31 28 24
10 14 34 48 50 39 25 20 19 17 14 29 19 22 25 28 46 52 60 31 34 21 36 51 44 37 41 51 57 59 61 58 58 60 56 79 65 52 43 42 40 32 35 32 27
9 17 39 45 39 35 37 36 34 32 26 24 22 18 17 17 19 40 57 59 35 41 33 46 60 46 37 38 44 51 52 57 55 54 54 53 56 54 45 42 41 36 35 33 30
10 18 38 41 38 36 32 30 32 32 31 30 27 25 27 20 9 12 38 60 56 40 49 58 51 56 41 36 34 39 43 45 48 51 51 50 44 46 45 42 41 40 38 35 32
11 25 32 35 34 30 25 22 19 18 18 18 24 24 25 23 20 10 10 43 66 69 88 87 97 40 58 42 35 34 35 37 38 40 42 43 40 41 40 40 38 36 35 33 31
17 27 32 32 28 24 20 17 15 13 11 11 11 12 18 18 18 12 9 11 44 73 99 98 99 93 45 54 32 31 33 33 33 33 34 34 36 36 36 33 30 28 29 28 26
18 27 30 28 22 17 14 10 6 4 3 3 3 6 5 5 13 15 10 9 11 53 82 96 96 78 67 43 54 42 41 43 38 36 28 28 29 29 28 30 27 24 23 23 19
21 26 28 23 17 12 7 3 2 2 2 5 5 4 5 7 4 8 9 10 9 9 31 54 77 82 89 63 56 59 40 38 48 34 27 26 23 27 25 22 23 21 19 17 14
24 31 26 19 12 5 2 2 4 8 8 21 27 13 60 81 7 20 10 9 11 10 9 13 28 98 100 74 60 67 50 47 48 42 29 28 22 21 22 20 19 17 17 16 13
33 28 22 14 5 2 3 11 48 83 45 42 54 72 50 81 25 79 91 69 52 16 10 10 15 56 100 98 48 73 67 63 56 43 42 33 22 20 22 18 17 16 15 16 13
30 24 17 9 3 4 14 45 87 100 71 67 100 100 86 64 71 46 91 100 83 18 19 13 12 19 97 94 53 74 92 73 66 48 48 34 25 20 20 18 16 15 20 20 17
27 21 13 3 3 9 48 75 97 100 83 70 99 100 96 82 74 100 100 100 99 100 41 22 23 64 67 99 93 41 100 86 68 61 42 36 28 20 21 18 20 24 21 23 21
24 17 6 3 5 32 73 99 93 89 88 87 100 96 100 100 96 75 100 100 100 100 98 84 79 31 39 95 100 69 74 99 81 62 29 34 35 24 24 21 21 26 23 23 29
22 11 3 3 18 69 100 97 80 78 94 99 100 100 100 100 100 92 70 92 100 100 100 99 89 88 24 53 90 81 37 91 81 53 38 43 28 26 27 23 21 28 25 28 27
18 5 3 11 30 99 100 85 72 96 100 100 100 98 95 100 99 98 100 91 85 96 100 100 93 98 48 32 50 97 78 48 84 71 58 40 31 31 32 30 28 27 26 30 30
11 4 4 18 55 100 90 64 88 100 100 100 98 100 100 100 100 96 95 98 100 100 99 100 100 97 64 38 56 90 100 71 55 95 70 51 42 42 34 40 31 30 28 30 30
6 4 8 19 86 100 76 73 99 89 91 100 100 99 100 100 100 99 95 100 100 100 92 100 100 100 98 51 28 57 89 91 69 76 97 87 62 48 40 37 37 31 32 28 28
5 4 8 24 35 58 82 94 80 73 93 91 100 95 90 100 100 95 100 98 89 100 98 95 100 100 100 99 80 32 39 89 87 74 93 100 90 80 57 38 38 37 32 31 27
5 8 12 34 43 68 66 70 60 80 100 91 100 100 93 100 100 99 95 100 96 72 86 98 99 100 100 100 100 46 25 58 82 82 85 100 100 97 96 44 38 40 38 34 34
7 11 26 53 68 58 74 60 78 83 86 93 97 89 97 100 95 73 100 82 84 86 88 90 93 94 96 76 86 69 23 24 42 46 66 88 100 100 100 54 48 38 40 39 36
10 20 37 58 69 93 93 75 63 71 64 75 60 74 93 99 92 98 100 95 100 80 100 100 81 89 84 89 90 72 39 22 20 25 28 54 92 100 100 82 60 50 42 40 42
12 26 51 56 71 95 87 92 48 57 57 46 67 56 80 98 88 100 92 100 96 75 100 98 89 100 97 88 73 78 54 28 17 16 13 17 49 100 98 94 73 60 52 42 42
19 33 54 48 52 56 63 70 85 72 97 76 62 40 58 87 100 100 100 88 99 100 98 78 96 99 99 88 93 84 51 33 22 16 14 10 18 78 97 92 78 67 54 54 48

GFSSW_500_rhum_213.txt.gz
RH
14 14 14 14 10 7 10 14 16 27 41 52 82 94 100 77 27 50 95 50 55 47 75 78 83 92 97 92 94 85 54 30 29 37 56 37 24 22 22 20 18 14 12 9 6
18 18 19 16 11 7 10 16 21 38 56 53 82 92 92 89 74 39 28 92 46 54 46 74 79 80 91 94 91 92 54 57 57 63 67 45 28 27 24 19 18 17 16 11 8
21 22 20 17 10 7 13 25 35 48 70 75 82 88 72 65 74 74 54 32 94 41 56 46 67 78 86 85 82 74 78 62 81 75 60 44 35 32 39 26 22 21 22 18 11
27 24 22 16 9 7 19 33 44 44 58 66 75 85 53 47 53 63 71 58 37 93 45 57 45 63 75 75 76 68 71 93 96 71 67 50 50 45 47 41 32 28 27 21 17
31 25 21 16 8 9 23 37 44 35 23 20 26 42 77 43 35 54 60 67 56 51 90 48 59 46 55 72 71 72 72 88 97 93 69 68 62 48 47 47 38 32 32 29 26
29 24 24 13 8 12 28 37 39 36 35 33 29 20 27 49 22 26 33 50 68 49 51 90 56 54 46 51 69 69 68 68 83 79 90 72 66 62 53 51 39 38 39 33 29
23 24 21 10 9 20 30 35 36 36 37 36 36 35 33 28 28 15 20 29 61 69 37 37 89 83 61 44 50 65 68 67 67 74 74 93 80 54 58 54 46 41 45 40 33
22 25 22 8 10 16 20 30 31 29 29 27 24 25 26 30 26 29 12 16 33 61 67 43 79 97 95 55 43 45 61 64 65 64 67 72 72 74 80 58 52 47 46 43 36
20 24 14 7 8 15 24 27 25 22 19 16 16 18 18 19 28 28 21 11 12 44 72 64 82 97 99 81 54 44 42 57 60 62 62 59 58 64 66 70 66 62 56 43 39
22 20 10 8 17 23 23 23 19 14 11 7 6 6 9 11 14 27 28 17 10 18 94 96 87 91 89 90 56 43 36 36 48 53 55 57 54 54 55 53 54 55 50 43 40
20 16 8 17 26 26 23 18 12 7 5 4 3 2 3 4 7 11 20 22 11 9 34 97 100 78 70 76 75 56 50 40 39 46 47 48 49 48 50 49 46 45 45 42 39
20 11 14 27 31 26 19 12 8 6 4 7 4 4 6 10 4 5 9 12 13 12 10 77 90 84 100 100 99 82 63 54 44 39 42 41 41 42 42 43 41 40 38 37 36
15 14 27 32 30 20 13 7 5 3 3 24 35 28 37 50 37 23 16 31 12 10 9 11 36 84 100 100 100 91 52 58 51 44 32 34 36 34 35 36 36 35 34 32 30
17 28 35 32 21 13 6 5 5 6 22 34 46 70 73 73 25 78 100 100 97 22 9 9 14 58 88 100 97 97 82 57 66 51 40 30 28 31 30 28 28 29 28 27 28
27 36 34 25 16 6 6 6 14 48 47 59 99 100 100 86 70 98 99 99 96 100 44 15 10 10 55 73 99 91 100 86 82 64 46 37 29 26 29 24 22 23 25 22 21
39 39 28 15 8 5 6 17 57 69 67 66 100 100 99 100 72 100 100 100 100 100 100 62 34 27 13 29 40 98 100 99 97 83 57 41 32 25 26 24 21 21 22 20 18
44 34 18 13 6 4 18 58 65 67 81 97 99 100 97 100 88 84 87 100 100 100 100 100 94 91 45 18 63 99 100 100 100 96 49 46 38 25 28 24 23 21 22 22 17
44 25 16 9 4 7 50 80 65 64 73 96 94 98 98 100 98 87 100 100 100 100 99 100 100 75 48 49 19 52 97 96 94 76 61 50 35 28 29 32 25 24 23 24 19
40 22 12 5 4 16 76 78 55 67 80 85 94 97 100 100 100 96 90 99 100 100 100 100 100 95 97 99 49 42 97 100 98 86 74 67 43 34 32 32 31 27 25 24 24
32 18 9 4 7 35 83 77 69 69 77 89 99 100 100 100 100 99 100 97 100 100 100 99 100 100 92 100 95 51 87 100 99 100 89 64 61 52 36 36 37 29 27 26 27
25 14 9 6 14 27 56 66 71 78 71 92 97 89 99 100 100 94 93 97 97 87 100 100 94 99 100 100 95 53 90 93 99 82 78 78 70 74 48 39 40 36 30 27 28
22 11 7 10 20 56 57 52 66 58 57 89 84 76 100 100 100 82 63 94 93 100 78 94 100 100 86 98 99 94 63 87 96 87 67 83 100 98 77 47 42 41 36 31 27
16 11 8 21 30 48 79 70 59 82 90 81 89 100 99 96 100 100 88 81 99 92 96 84 100 100 100 77 80 74 56 91 100 100 92 74 99 100 100 62 46 43 38 33 30
13 9 14 32 48 51 82 73 65 80 93 72 81 95 97 97 92 99 95 87 89 81 93 100 99 100 99 100 97 81 57 40 84 94 97 85 93 96 100 84 57 41 42 38 31
12 9 13 32 52 62 78 70 53 78 73 67 73 71 89 100 91 100 100 99 84 84 80 95 95 98 100 98 96 98 100 86 41 68 78 89 91 100 100 100 72 53 38 43 38
13 8 19 44 40 64 76 68 65 93 78 77 54 72 69 89 100 100 97 100 72 75 96 87 53 64 78 87 92 79 80 88 85 39 54 61 86 100 100 99 90 61 57 42 43
11 9 19 41 49 49 50 57 57 72 96 72 72 56 56 63 100 100 93 90 99 100 100 100 100 100 85 88 87 81 70 76 84 53 32 44 63 94 93 98 93 84 52 51 45

GFSSW_500_rhum_219.txt.gz
RH
7 6 8 10 16 27 32 28 25 20 13 10 10 15 27 27 34 35 48 93 83 29 59 72 98 90 87 68 72 82 69 68 66 95 37 36 42 36 31 35 34 31 30 25 22
7 7 7 8 12 22 26 27 26 18 14 12 16 27 36 42 39 36 100 96 93 61 40 72 99 96 93 87 72 58 48 65 74 98 68 62 38 38 31 28 30 29 23 19 19
7 6 7 10 15 22 24 26 25 18 14 13 21 38 46 49 45 67 92 90 98 96 28 49 97 94 92 93 84 62 42 74 100 97 94 93 51 40 33 29 23 19 18 19 17
7 6 7 10 14 19 22 28 26 17 15 17 26 34 50 50 28 33 60 94 100 100 96 27 86 95 87 85 80 58 55 76 100 97 98 90 67 42 30 31 30 26 26 21 20
7 6 9 14 18 17 23 28 23 16 17 21 30 36 38 42 38 23 27 53 84 98 100 67 35 99 93 78 85 71 64 84 99 96 95 94 72 65 44 31 32 37 34 27 24
7 7 12 14 19 16 27 26 19 17 17 23 27 30 30 25 32 30 22 18 56 84 100 98 81 61 100 94 73 79 77 89 96 98 95 96 90 68 61 48 37 40 40 37 29
7 9 14 16 18 22 27 21 17 17 19 29 32 35 32 29 29 32 30 23 17 65 72 100 100 67 92 99 85 69 81 93 96 97 98 96 94 73 62 54 46 41 40 40 34
7 10 14 17 18 26 24 19 18 16 28 30 28 28 27 27 27 30 31 33 28 20 56 46 90 100 79 95 99 96 91 86 82 93 88 98 80 79 66 61 54 62 50 46 43
7 10 15 16 22 23 21 19 17 23 25 19 16 15 14 14 16 22 25 26 34 33 25 29 68 96 98 93 100 96 90 75 73 89 92 94 93 88 75 60 53 60 59 55 50
7 12 15 13 23 22 20 19 25 24 17 12 11 9 9 10 10 10 16 23 18 26 30 20 28 80 88 96 94 96 84 67 69 73 76 83 85 99 85 66 60 66 60 56 51
8 13 12 17 22 19 19 29 26 17 11 11 8 6 4 4 4 8 9 13 17 19 21 26 19 32 48 60 71 82 97 84 63 64 79 71 74 98 98 88 76 89 70 62 55
10 12 10 20 20 20 27 32 22 17 9 8 7 6 6 5 5 14 8 9 10 15 16 20 24 34 34 80 90 99 96 99 92 74 69 80 72 92 94 91 97 89 83 68 63
11 10 14 20 19 25 35 24 18 13 8 10 14 22 42 38 32 24 8 14 11 10 10 17 25 27 33 81 99 97 99 93 95 96 72 65 86 88 92 74 76 94 95 77 66
10 10 13 16 22 35 31 20 15 10 11 15 37 89 95 89 63 52 29 24 29 16 9 13 20 29 26 60 96 100 98 100 100 99 90 62 54 81 93 90 66 67 89 89 74
10 13 15 18 27 42 24 17 11 8 15 36 59 100 89 94 88 83 80 81 95 58 18 10 16 37 36 29 75 96 99 100 99 100 97 82 62 50 73 89 70 57 58 71 85
10 12 16 20 45 34 22 15 9 14 29 33 63 82 100 97 78 84 76 68 100 100 52 14 15 78 35 40 80 93 100 100 100 99 100 85 78 50 45 55 70 68 67 64 63
10 12 19 36 50 27 20 12 9 15 30 50 82 99 97 91 89 72 100 100 100 100 86 27 19 59 95 78 100 100 100 97 100 100 94 80 87 54 46 43 52 61 59 54 61
9 15 22 55 41 26 18 9 11 18 48 90 89 100 100 95 100 66 100 100 100 100 100 78 26 35 99 84 99 100 100 98 96 97 86 81 74 50 57 47 40 46 52 51 48
11 19 38 58 34 24 15 9 13 23 48 76 87 100 100 87 97 68 94 100 93 100 100 100 79 29 95 68 90 100 100 100 98 92 86 78 48 44 54 56 43 38 40 43 43
12 31 56 54 31 20 13 15 19 26 52 59 87 95 99 89 84 100 72 84 99 100 100 100 90 65 26 72 81 100 100 100 100 100 99 80 63 55 60 65 59 42 36 35 35
18 38 59 48 30 20 12 18 29 30 46 54 86 94 95 97 94 100 100 90 98 100 100 100 100 100 94 36 23 69 98 100 100 97 88 68 59 62 56 60 62 61 41 33 31
20 47 64 48 25 20 10 21 36 49 76 62 85 87 88 100 98 99 100 100 100 96 100 97 94 72 89 61 43 62 100 100 100 83 85 74 67 62 53 48 53 69 55 38 33
43 54 68 44 24 15 11 20 49 41 68 83 90 76 76 99 98 100 93 100 100 93 100 100 100 90 100 99 85 80 92 87 71 83 76 69 60 63 67 52 48 53 70 50 37
57 58 69 39 26 16 13 24 62 66 49 64 85 70 73 93 94 100 100 99 100 100 100 100 100 100 92 80 90 78 80 83 77 59 55 69 68 76 65 66 64 49 56 60 42
63 70 68 35 26 16 12 22 36 62 63 50 57 68 71 88 89 97 100 91 100 100 94 98 100 99 100 96 95 100 100 100 100 76 62 89 100 100 88 77 69 71 62 56 41
60 76 63 29 25 15 13 29 36 51 49 58 66 61 58 86 85 87 100 94 81 95 100 100 97 100 100 92 92 96 95 93 100 100 82 71 88 100 99 77 75 73 66 62 48
58 78 56 26 24 15 15 22 40 55 63 54 80 79 58 59 86 75 100 96 99 98 96 96 98 83 81 98 94 92 94 100 100 89 81 80 79 97 97 99 73 69 63 60 56

GFSSW_500_rhum_222.txt.gz
RH
6 8 9 9 8 7 8 13 17 25 25 27 26 22 18 14 14 19 32 90 95 83 61 37 55 77 96 85 56 60 69 47 37 34 53 96 72 51 41 48 46 40 38 36 36
7 10 10 10 9 7 8 15 18 22 24 26 26 20 16 13 14 40 65 80 92 83 81 41 45 68 90 96 84 69 47 39 49 58 67 96 96 50 54 42 47 43 37 33 33
10 12 12 11 8 7 13 16 18 19 23 26 23 20 18 14 15 55 52 62 79 80 93 54 29 63 74 91 90 71 42 46 54 59 87 97 96 65 62 50 40 39 36 30 26
12 13 12 10 8 7 10 16 17 20 25 24 21 17 17 15 19 34 38 33 62 94 98 98 41 33 67 70 87 74 60 59 74 78 92 96 93 76 51 55 37 30 30 29 28
12 13 11 8 6 7 12 17 19 22 23 21 20 18 16 15 20 32 43 37 25 59 100 100 92 50 50 68 89 90 85 81 86 77 90 97 97 77 55 52 45 33 28 26 27
12 12 10 8 5 7 14 17 19 23 22 21 18 22 24 17 27 32 34 42 29 23 79 100 97 94 35 53 95 82 89 91 93 87 87 95 98 85 66 46 43 40 32 26 23
11 12 10 8 5 6 14 16 20 22 20 16 21 30 28 30 30 27 28 31 36 23 24 79 100 96 84 40 75 84 86 98 94 89 79 93 97 69 80 58 49 47 45 40 32
10 10 9 6 5 10 14 15 20 18 17 22 28 24 21 19 25 27 33 28 29 33 19 26 82 100 100 69 49 98 100 98 98 91 84 89 93 93 91 71 61 60 54 57 48
10 9 7 6 7 13 15 19 18 17 28 25 18 16 14 12 12 17 27 31 29 28 31 18 55 100 100 97 90 98 96 89 99 89 84 97 84 98 94 81 71 75 70 68 54
9 7 5 5 8 15 15 17 16 28 22 19 16 13 11 10 9 9 12 19 27 26 23 29 18 76 100 100 92 79 83 93 84 84 83 79 87 98 98 97 86 87 93 79 75
7 5 4 6 12 16 16 17 21 24 21 17 15 12 10 9 9 6 7 11 14 22 22 23 28 20 50 85 83 89 88 96 94 89 84 66 82 98 98 100 96 96 95 95 92
7 5 5 8 14 15 17 19 32 26 19 14 9 7 9 10 15 10 6 6 12 12 18 17 27 35 22 62 77 100 98 99 89 100 98 88 70 98 96 92 96 98 98 96 95
6 4 7 9 14 17 16 38 33 24 15 9 10 14 26 36 44 38 20 8 10 15 12 17 24 26 25 29 50 89 93 99 99 100 99 94 73 80 90 94 98 94 98 96 95
4 4 6 11 16 16 31 40 30 21 9 12 24 44 59 81 62 63 60 43 20 21 25 12 15 21 27 23 37 47 80 97 100 100 97 96 68 60 85 91 99 92 94 95 96
4 6 8 11 14 17 42 39 27 15 8 16 19 38 59 76 64 93 88 72 67 33 43 18 12 18 24 29 34 33 79 92 100 99 98 99 88 56 64 90 74 88 93 94 89
4 6 8 12 14 26 49 36 25 13 13 19 42 55 98 90 80 88 98 89 79 62 72 41 22 19 20 25 28 34 84 100 100 100 100 89 83 57 50 58 81 76 94 97 97
4 7 10 12 24 42 50 32 20 13 12 23 52 86 98 100 86 98 100 100 88 84 100 86 28 17 20 23 28 44 100 99 100 100 98 97 100 57 60 55 78 86 81 95 96
5 6 9 16 28 51 47 31 16 12 14 36 53 93 97 81 92 98 100 87 100 98 100 100 43 22 19 26 32 32 85 99 100 99 91 94 86 61 67 66 54 87 86 85 93
5 7 9 22 39 59 41 28 17 10 15 24 59 96 100 87 71 100 99 100 100 100 95 100 82 27 31 43 45 48 90 97 100 100 96 99 76 63 66 68 57 50 66 74 76
5 7 12 30 50 60 38 26 13 15 21 33 69 86 100 75 87 100 89 95 95 100 92 99 100 32 47 100 92 99 90 100 98 99 99 81 64 70 64 63 67 56 47 49 60
6 8 19 42 60 55 36 23 12 17 30 37 74 90 93 96 99 100 100 100 98 93 93 100 100 57 28 98 100 99 100 100 100 100 98 90 79 81 72 65 70 70 59 46 43
7 10 28 54 62 54 40 26 12 20 42 44 83 85 88 95 100 93 100 100 100 100 100 100 96 98 23 80 100 99 100 100 100 96 98 96 81 82 74 59 62 64 68 57 43
7 11 34 53 66 55 39 23 12 21 43 51 69 81 80 94 90 86 78 100 100 100 100 100 100 100 59 52 99 100 100 100 99 100 100 100 100 92 88 70 64 71 69 68 54
7 15 28 54 68 56 35 20 15 19 40 50 50 79 72 83 94 95 84 96 98 100 100 100 100 89 72 47 36 96 100 100 100 100 100 97 82 82 74 60 54 57 61 67 74
8 14 32 67 70 59 36 21 14 21 38 58 50 44 65 82 88 94 99 80 95 100 100 100 100 100 59 66 76 50 42 48 87 93 98 96 87 76 74 68 58 49 48 57 71
9 14 47 79 72 57 31 20 13 26 40 43 49 62 60 60 88 88 98 98 90 99 100 99 90 100 83 100 94 100 85 70 94 88 78 80 74 68 59 56 46 42 42 53 64
11 14 52 84 70 53 33 19 14 18 56 60 52 70 78 61 67 84 87 97 96 96 93 100 99 100 100 85 73 92 96 95 59 79 66 56 58 68 66 61 58 54 54 62 67

GFSSW_500_rhum_225.txt.gz
RH
7 8 9 12 14 14 11 9 6 4 6 13 18 21 24 25 25 24 19 36 43 46 65 63 62 46 59 76 79 92 70 38 33 40 59 86 96 97 91 51 51 47 48 49 47
8 8 10 12 11 10 9 5 4 6 10 16 16 17 20 23 26 21 20 23 40 48 54 76 72 42 56 64 73 86 91 53 50 53 63 74 96 95 96 74 51 50 48 48 47
8 9 10 11 9 9 5 4 4 7 14 16 14 15 21 24 26 22 20 28 59 60 43 91 98 54 40 63 60 78 79 75 65 64 72 72 86 92 88 85 52 45 46 46 44
8 9 11 11 10 7 4 3 4 10 13 15 19 22 23 24 22 21 21 25 58 61 60 99 100 90 42 48 61 69 78 90 76 76 76 90 88 92 70 88 68 43 41 42 43
9 10 11 10 10 7 4 3 6 11 14 18 19 20 16 15 17 26 24 23 33 50 44 69 100 100 68 33 69 64 77 97 94 92 87 87 88 84 83 82 74 56 41 37 39
10 11 12 11 9 4 3 4 10 13 16 17 18 13 18 25 31 32 30 30 28 36 35 29 84 100 100 41 41 62 69 96 98 96 95 92 90 72 80 87 90 60 52 39 34
11 13 13 10 8 4 3 7 13 16 16 15 14 26 29 25 26 26 29 31 29 31 37 28 30 94 88 92 36 53 76 90 99 99 92 94 88 54 71 98 95 68 63 50 33
14 15 13 10 6 3 4 9 14 15 12 15 25 23 20 18 17 17 19 29 32 30 34 35 23 43 89 92 79 39 60 95 97 99 98 94 58 54 87 100 100 72 75 68 41
16 15 12 9 4 3 4 12 15 13 20 26 25 20 16 15 14 13 13 15 27 33 27 32 34 19 61 97 92 82 52 66 85 94 98 96 66 84 86 94 100 89 84 85 64
17 14 11 9 4 3 6 13 14 19 29 27 19 14 11 8 9 11 11 11 14 27 34 26 31 26 21 84 88 84 79 54 76 98 97 96 71 82 73 98 100 99 96 96 95
18 13 7 6 3 4 10 11 13 28 31 25 16 8 6 7 7 6 7 9 12 14 28 31 24 32 29 41 91 100 95 66 61 99 97 95 98 100 92 99 98 97 97 97 97
18 13 8 6 2 7 9 12 10 24 30 21 11 7 6 12 20 18 14 14 10 14 15 25 30 26 29 40 78 100 99 94 79 96 98 98 95 99 98 98 99 99 99 97 96
18 14 9 4 3 8 12 13 17 34 27 14 10 9 13 14 22 36 39 34 27 15 18 16 23 23 26 37 91 99 87 89 93 100 98 99 99 98 90 95 98 98 99 99 97
20 14 7 2 5 11 12 13 30 34 22 15 11 17 23 32 72 66 77 67 55 36 22 20 17 22 22 28 25 54 92 99 100 100 98 100 93 95 95 92 95 98 94 93 81
17 12 5 2 5 11 12 18 39 31 19 13 12 21 42 55 63 99 90 96 81 71 44 27 22 20 22 30 30 30 58 98 100 100 98 100 98 84 100 85 78 85 92 99 100
18 9 3 3 7 12 15 24 43 30 18 11 13 28 74 66 68 79 81 84 74 76 58 35 41 18 20 22 30 26 31 99 100 100 99 90 94 69 88 58 75 86 87 94 97
18 6 3 4 10 12 23 35 42 32 17 11 15 52 64 100 82 96 90 75 76 94 72 59 52 32 18 23 26 29 32 96 100 100 86 95 100 66 61 77 70 94 98 98 98
14 4 3 5 12 12 28 44 44 33 14 12 19 60 71 73 77 85 100 81 100 100 96 100 63 55 18 18 23 29 27 65 100 95 84 91 94 62 63 74 74 90 97 97 95
9 4 3 8 10 18 44 53 45 34 15 13 31 74 75 91 100 92 100 84 98 100 88 99 90 86 32 17 21 29 30 62 96 87 98 91 65 64 86 69 91 70 89 97 88
7 3 4 8 10 24 50 55 46 32 14 16 26 56 75 98 75 100 100 100 100 100 95 100 97 100 47 44 47 53 31 52 99 100 99 92 73 93 88 87 94 88 66 93 97
5 4 5 8 12 32 58 57 48 32 14 17 24 67 67 91 76 100 100 100 100 99 100 99 99 100 75 34 51 58 48 40 100 100 97 98 95 81 94 92 81 98 80 62 94
5 4 6 8 14 34 63 58 49 30 14 19 32 52 70 76 94 78 79 100 90 100 100 100 100 99 85 28 94 98 99 67 91 100 91 94 98 90 90 99 89 94 95 76 57
6 5 6 9 23 56 67 61 48 30 13 16 45 36 69 69 91 87 70 78 97 90 100 100 100 100 99 60 98 100 100 100 70 97 100 78 88 85 76 71 80 86 85 90 82
6 7 7 10 19 59 74 52 35 29 13 17 30 45 42 72 78 98 73 77 92 100 100 100 100 100 92 27 44 85 96 94 100 92 98 100 100 100 92 89 84 95 93 82 94
7 9 8 11 34 70 79 51 35 23 14 16 44 43 37 55 70 93 90 68 67 100 100 79 100 100 100 31 92 100 100 98 100 100 100 100 100 100 100 96 97 90 73 78 82
9 9 8 15 32 89 82 44 37 20 13 19 49 65 44 44 62 95 91 86 85 97 100 90 86 83 100 60 67 90 100 100 100 100 100 98 100 100 100 100 89 78 71 77 93
10 10 11 23 44 89 80 40 34 19 14 14 31 61 67 58 55 77 92 90 99 98 100 100 99 100 78 98 77 54 92 96 100 100 100 97 100 100 99 97 80 66 72 57 72

GFSSW_500_rhum_228.txt.gz
RH
6 6 7 8 10 11 13 13 12 8 2 3 7 13 14 16 15 12 13 18 20 23 24 23 34 57 61 50 51 62 83 82 64 54 62 66 91 94 94 87 54 46 43 50 41
7 7 8 9 11 14 14 14 14 5 2 6 10 11 13 13 13 19 17 20 22 24 23 21 27 68 66 52 54 58 70 58 86 73 65 61 82 87 96 94 68 50 44 53 51
7 7 9 10 14 15 16 15 9 2 3 10 12 13 21 21 18 20 21 23 24 24 23 20 35 70 84 52 52 54 60 75 95 82 62 61 72 76 88 96 95 57 50 51 54
8 9 10 13 16 17 16 14 4 2 8 13 16 17 17 16 17 18 18 20 22 23 23 26 58 79 94 77 50 51 52 81 82 99 73 58 64 67 80 93 97 91 48 50 49
8 10 12 16 18 18 17 11 2 4 9 14 15 14 14 14 21 20 16 18 21 24 24 29 62 82 100 95 51 50 56 66 87 97 96 82 67 76 85 90 96 97 62 46 48
9 11 15 17 19 20 16 8 3 6 10 12 16 25 27 26 24 27 29 26 22 28 29 27 64 64 94 100 83 51 56 58 99 96 98 96 86 72 92 85 71 75 93 65 44
11 12 15 18 20 19 11 4 3 6 10 15 28 30 28 24 23 20 20 26 28 30 32 30 51 56 59 96 100 65 47 70 73 95 98 98 94 68 85 91 78 66 72 92 53
12 14 16 21 22 20 10 2 3 8 11 22 27 27 21 16 15 17 16 17 20 27 31 35 35 39 48 77 100 88 52 57 66 98 97 99 78 83 81 90 84 87 91 94 94
12 16 20 24 25 24 9 3 4 8 15 25 25 20 15 12 9 9 13 14 15 18 28 31 34 34 26 47 100 100 73 53 58 73 98 99 93 92 86 93 84 86 98 98 91
16 21 24 27 26 17 4 3 8 12 20 28 21 16 12 8 6 6 8 11 13 14 21 30 32 32 29 23 66 83 89 65 49 71 94 98 98 98 83 95 84 79 91 97 91
20 23 25 27 25 11 3 2 5 14 23 21 18 13 9 8 8 10 11 11 11 12 13 28 30 31 34 23 28 81 100 96 53 56 90 95 100 99 99 99 81 81 95 96 92
22 24 27 28 22 6 3 4 8 10 24 23 17 12 8 9 10 19 23 31 18 12 13 16 30 28 31 30 20 49 87 90 85 49 60 98 98 99 97 87 82 98 100 98 95
24 28 31 27 14 4 3 5 10 16 29 22 17 11 10 14 29 36 47 53 46 31 14 15 22 29 27 31 28 27 61 90 89 80 68 94 99 99 98 89 93 91 100 97 99
28 31 32 22 10 4 3 7 13 26 28 22 17 11 12 33 71 64 83 76 65 62 42 16 17 28 27 28 34 21 38 97 99 99 94 95 93 98 97 99 74 93 97 92 87
30 32 29 15 7 3 4 8 23 34 31 23 17 9 21 43 57 79 82 74 78 70 64 36 24 21 28 70 100 100 100 93 100 100 99 99 92 85 100 98 73 79 97 97 95
32 29 16 10 5 4 5 12 32 36 30 23 14 10 51 42 59 66 80 80 75 62 59 48 27 20 25 74 91 100 94 97 100 100 100 90 98 98 92 66 79 90 100 100 100
32 24 15 10 5 4 6 19 42 42 38 27 11 16 52 50 89 78 61 57 81 96 89 51 36 25 21 27 75 100 98 100 100 100 90 100 100 84 85 90 98 95 100 99 98
35 25 14 8 4 4 7 27 46 46 40 26 10 21 38 68 98 95 93 99 100 100 92 88 48 27 26 23 34 97 97 58 82 85 87 92 80 80 79 76 98 96 97 98 99
34 19 11 7 4 5 11 28 48 52 42 25 11 26 42 48 70 99 100 96 89 100 99 100 98 73 36 28 26 54 73 45 54 99 100 81 62 65 78 78 84 96 90 85 82
28 14 9 5 4 6 18 38 55 52 40 22 11 15 51 55 83 93 100 100 100 95 76 100 100 100 64 51 37 38 52 72 42 100 99 70 65 70 82 81 80 94 93 93 87
19 11 9 5 4 7 17 53 67 52 39 22 12 12 40 63 70 78 94 100 100 100 100 100 99 100 97 49 30 29 65 44 54 100 100 70 65 64 82 94 87 92 94 91 95
14 11 7 4 5 8 15 47 68 46 38 19 12 11 32 50 73 78 64 77 82 100 100 100 95 100 100 89 68 71 82 41 54 76 84 67 65 86 85 92 100 93 90 90 83
13 10 7 5 5 10 31 59 72 39 32 18 12 12 19 43 66 76 71 60 80 85 100 92 100 95 100 100 84 65 100 60 47 54 100 100 80 87 91 92 84 98 99 99 80
12 9 8 5 5 13 44 84 61 39 31 18 14 13 24 29 50 88 74 54 74 96 100 100 100 89 100 87 64 58 100 78 39 65 97 96 79 75 86 90 90 97 97 99 94
12 11 9 6 6 14 48 76 59 31 29 18 16 13 17 30 36 65 82 54 72 87 100 87 100 94 98 95 100 100 100 95 81 74 91 100 95 89 79 100 97 100 96 97 99
13 12 10 7 9 19 59 76 63 30 28 18 14 20 18 28 34 60 87 65 80 100 97 98 97 96 100 92 98 100 100 100 100 100 84 93 100 100 100 99 99 100 100 98 98
14 13 10 8 11 32 70 81 60 35 24 15 13 18 26 36 45 52 89 85 92 99 90 93 100 100 100 64 100 100 100 100 100 100 100 99 100 100 100 94 96 94 90 95 96

GFSSW_500_rhum_234.txt.gz
RH
25 26 24 22 17 18 20 20 18 12 12 10 6 5 3 2 4 9 12 12 11 14 12 15 30 36 32 28 48 64 75 74 45 44 51 96 87 73 95 85 66 91 69 32 30
24 25 24 19 18 21 22 22 14 13 11 9 7 4 2 3 7 8 14 21 21 21 17 19 26 40 38 31 51 70 58 49 49 57 81 96 78 73 90 65 61 82 81 53 51
24 22 19 18 20 22 23 20 14 13 12 10 6 2 3 5 10 8 12 21 22 22 30 25 31 39 38 33 52 63 55 56 67 61 91 83 80 93 95 96 71 68 95 63 65
29 22 24 22 21 24 23 17 14 14 14 8 4 2 5 7 16 10 20 16 17 20 24 30 40 37 30 26 43 57 63 71 100 71 88 80 98 92 86 86 98 81 81 90 69
28 26 30 26 23 25 23 18 15 16 13 6 3 3 5 9 14 26 26 28 24 17 22 24 28 35 29 37 47 29 32 70 82 99 71 88 84 83 87 92 96 86 73 96 79
30 30 29 24 24 26 23 18 17 16 9 4 3 3 8 15 18 17 18 21 26 25 20 24 24 26 27 32 45 49 38 36 79 98 94 88 92 98 92 95 94 81 67 86 96
29 29 30 26 26 28 24 20 17 13 7 3 3 4 12 20 18 16 14 15 20 23 24 27 23 24 24 32 30 32 31 39 46 69 91 97 97 97 98 97 95 80 75 91 94
28 34 31 26 30 30 23 19 16 12 5 2 3 9 16 20 17 13 10 11 13 16 21 24 29 25 24 28 44 37 38 32 33 59 86 100 77 89 98 98 98 86 66 88 84
32 30 27 31 33 28 22 18 15 10 4 2 6 18 21 17 12 7 6 7 9 9 14 22 22 32 30 26 44 59 38 25 62 67 72 87 77 95 94 81 89 87 65 82 69
29 29 30 35 34 26 22 18 14 6 3 2 11 24 20 15 9 6 7 8 9 8 13 17 20 25 37 30 28 45 50 45 45 72 65 81 79 90 98 97 98 86 84 72 68
32 32 36 39 31 25 21 17 13 6 2 4 18 26 21 12 8 14 20 18 17 17 14 16 18 20 35 35 28 36 65 58 65 100 78 57 95 85 98 96 97 97 96 56 72
34 37 40 37 29 24 20 17 12 4 2 8 24 24 20 10 18 34 41 50 46 54 29 26 20 20 31 37 33 30 55 83 100 100 98 75 81 99 96 98 97 95 97 77 63
38 42 43 37 27 22 19 16 8 2 3 13 22 26 17 12 33 56 62 63 69 62 58 32 32 28 50 44 36 33 35 70 84 100 96 99 86 87 82 96 97 98 89 97 66
44 48 43 36 25 22 19 14 4 2 5 18 25 27 14 21 48 59 63 67 61 72 85 92 29 31 98 55 41 33 35 69 100 100 95 88 78 84 79 92 95 97 91 72 83
52 51 44 32 28 22 19 11 4 3 9 18 29 29 15 34 48 60 50 67 71 70 74 70 83 27 36 40 48 40 34 48 100 100 97 93 73 69 77 88 92 88 93 95 97
55 50 38 32 27 21 17 8 3 4 11 27 36 32 13 33 67 63 65 80 88 93 91 87 62 49 23 83 95 54 100 68 67 100 100 89 70 61 59 56 93 100 98 100 97
55 46 36 30 24 20 13 6 2 3 18 28 38 36 15 27 68 71 100 100 75 75 92 100 93 38 26 30 80 51 100 100 54 46 78 100 100 61 49 57 82 97 92 91 97
52 44 36 27 24 18 10 4 2 4 16 50 47 35 16 14 46 81 100 100 93 80 90 99 100 99 45 22 32 48 93 68 50 46 60 80 96 63 59 60 75 96 84 96 100
52 42 34 29 22 15 8 3 2 5 16 33 48 36 17 10 34 70 94 98 100 93 85 93 100 100 61 30 22 51 49 75 62 35 52 90 97 98 76 61 62 96 95 84 81
48 40 32 27 19 11 6 3 2 7 24 49 50 37 19 10 21 54 68 88 100 100 98 95 96 100 100 34 21 27 60 64 96 60 40 54 77 84 75 60 68 77 89 92 82
45 38 30 24 17 10 4 2 2 10 26 47 52 38 20 10 10 36 58 69 97 100 100 89 91 100 100 78 31 26 38 91 97 100 99 58 86 82 81 80 68 68 88 96 92
45 34 26 22 13 8 3 2 5 14 39 57 52 35 19 10 9 22 46 54 77 91 100 96 82 100 100 100 32 30 53 98 100 100 100 100 86 86 74 58 54 76 88 81 96
40 32 26 20 10 5 2 2 6 21 49 61 48 30 16 10 7 12 38 48 57 68 89 94 98 97 100 90 66 33 98 100 100 100 100 100 90 80 68 74 70 83 90 59 84
36 28 24 14 8 3 2 4 12 30 44 57 41 24 17 8 5 12 23 52 51 55 66 60 88 100 100 100 100 41 72 98 100 98 99 100 80 73 56 60 70 72 99 82 71
30 25 22 13 6 2 2 6 12 32 57 49 30 22 13 6 7 8 14 49 53 55 61 68 79 78 96 100 88 88 51 92 100 98 96 76 99 100 99 81 66 71 92 81 69
27 22 15 9 3 1 2 8 13 47 51 38 23 16 8 5 7 14 18 41 73 64 62 57 55 57 99 83 73 74 52 66 77 100 99 54 73 100 100 100 95 70 94 73 72
24 17 12 6 2 2 4 10 26 56 42 27 20 11 6 7 9 15 25 41 85 67 68 50 68 98 97 98 100 100 95 100 72 90 88 58 60 96 100 100 100 100 79 76 67